This demonstration page uses our WeatherBlox Daily Observations layout. Learn more.

Left ArrowRight Arrow

34.74481, -87.66753

Hourly Observations for March 1, 2021

Temp ( °F °C ) Dew Point ( °F °C ) Humidity (%) Winds ( mph kmh ) Pressure ( in mb ) Visibility ( mi km ) Precip ( " mm )
12:53 am 00:53 Cloudy with Nearby Thunderstorms 60 15.6 54 12.2 80 80 VRB 3 6 29.96 1014 3 5 0.12 3.05
1:14 am 01:14 Cloudy with Heavy Rain 60 15.6 54 12.2 80 80 Calm 29.97 1015 3 4 0.10 2.54
1:19 am 01:19 Cloudy with Heavy Rain 60 15.6 54 12.2 80 80 ESE 3 6 29.96 1014 3 5 0.12 3.05
1:53 am 01:53 Cloudy with Rain 59 15 54 12.2 83 83 Calm 29.94 1014 4 6 0.21 5.33
2:24 am 02:24 Cloudy with Rain 59 15 54 12.2 83 83 Calm 29.95 1014 3 4 0.11 2.79
2:36 am 02:36 Cloudy with Light Rain 59 15 54 12.2 83 83 S 6 9 29.96 1014 5 8 0.12 3.05
2:53 am 02:53 Cloudy with Light Rain 59 15 54 12.2 83 83 S 8 13 29.95 1014 5 8 0.15 3.81
3:53 am 03:53 Cloudy with Light Rain 59 15 54 12.2 83 83 W 5 7 29.97 1015 8 13 0.07 1.78
4:05 am 04:05 Cloudy with Light Rain 59 15 54 12.2 83 83 NW 5 7 29.98 1015 8 13 0.01 0.25
4:30 am 04:30 Cloudy with Light Rain 59 15 54 12.2 83 83 NW 7 11 30.02 1017 10 16 0.01 0.25
4:33 am 04:33 Cloudy with Light Rain 59 15 54 12.2 83 83 WNW 7 11 30.03 1017 9 14 0.01 0.25
4:43 am 04:43 Cloudy with Light Rain 59 15 54 12.2 83 83 W 6 9 30.03 1017 7 11 0.02 0.51
4:53 am 04:53 Cloudy with Light Rain 59 15 54 12.2 83 83 WNW 7 11 30.02 1017 5 8 0.03 0.76
5:07 am 05:07 Cloudy with Rain 59 15 54 12.2 83 83 NW 8 13 30.05 1018 4 6 0.03 0.76
5:15 am 05:15 Cloudy with Light Rain 59 15 54 12.2 83 83 WNW 6 9 30.06 1018 5 8 0.04 1.02
5:28 am 05:28 Cloudy with Rain 59 15 54 12.2 83 83 WNW 5 7 30.06 1018 5 8 0.07 1.78
5:53 am 05:53 Cloudy with Light Rain 58 14.4 54 12.2 87 87 Calm 30.02 1017 4 6 0.13 3.30
6:53 am 06:53 Cloudy with Rain 58 14.4 54 12.2 87 87 W 5 7 30.05 1018 3 5 0.05 1.27
7:01 am 07:01 Cloudy with Light Rain 58 14.4 54 12.2 87 87 WNW 5 7 30.06 1018 4 6 0.01 0.25
7:10 am 07:10 Cloudy with Light Rain 58 14.4 54 12.2 87 87 NNW 13 20 30.06 1018 4 6 0.02 0.51
7:26 am 07:26 Cloudy with Light Rain 55 12.8 50 10 83 83 N 9 15 30.09 1019 5 8 0.03 0.76
7:35 am 07:35 Cloudy with Light Rain 54 12.2 49 9.4 83 83 N 15 24 30.11 1020 6 10 0.03 0.76
7:43 am 07:43 Cloudy with Light Rain 54 12.2 48 8.9 80 80 NNE 10 17 30.06 1018 6 10 0.04 1.02
7:53 am 07:53 Cloudy with Light Rain 54 12.2 48 8.9 80 80 NNW 14 22 30.10 1019 7 11 0.04 1.02
8:53 am 08:53 Cloudy 53 11.7 47 8.3 80 80 Calm 30.11 1020 9 14 0.00 0.00
9:05 am 09:05 Cloudy 53 11.7 47 8.3 80 80 Calm 30.13 1020 10 16 0.00 0.00
9:53 am 09:53 Cloudy 52 11.1 45 7.2 77 77 NNW 10 17 30.18 1022 10 16 0.00 0.00
10:32 am 10:32 Cloudy 51 10.6 42 5.6 71 71 VRB 7 11 30.17 1022 10 16 0.00 0.00
10:53 am 10:53 Cloudy 51 10.6 41 5 69 69 N 12 19 30.20 1023 10 16 0.00 0.00
11:53 am 11:53 Cloudy 50 10 37 2.8 61 61 NNE 12 19 30.21 1023 10 16 0.00 0.00
12:53 pm 12:53 Cloudy 49 9.4 36 2.2 61 61 NNW 8 13 30.22 1023 10 16 0.00 0.00
1:53 pm 13:53 Cloudy 49 9.4 35 1.7 59 59 N 7 11 30.23 1024 10 16 0.00 0.00
2:53 pm 14:53 Cloudy 49 9.4 35 1.7 59 59 N 7 11 30.24 1024 10 16 0.00 0.00
3:53 pm 15:53 Mostly Cloudy 48 8.9 33 0.6 56 56 NE 9 15 30.22 1023 10 16 0.00 0.00
4:53 pm 16:53 Mostly Cloudy 48 8.9 33 0.6 56 56 NE 7 11 30.22 1024 10 16 0.00 0.00
5:53 pm 17:53 Clear 48 8.9 34 1.1 58 58 N 6 9 30.26 1025 10 16 0.00 0.00
6:53 pm 18:53 Clear 47 8.3 35 1.7 63 63 NNE 3 6 30.25 1024 10 16 0.00 0.00
7:53 pm 19:53 Clear 47 8.3 35 1.7 63 63 Calm 30.28 1026 10 16 0.00 0.00
8:53 pm 20:53 Clear 47 8.3 34 1.1 61 61 N 6 9 30.29 1026 10 16 0.00 0.00
9:53 pm 21:53 Clear 46 7.8 31 -0.6 56 56 NNE 9 15 30.29 1026 10 16 0.00 0.00
10:53 pm 22:53 Clear 45 7.2 31 -0.6 58 58 N 6 9 30.30 1026 10 16 0.00 0.00
11:53 pm 23:53 Clear 44 6.7 30 -1.1 58 58 NNE 5 7 30.32 1027 10 16 0.00 0.00

Powered by AerisWeather